Location: Terra Rouge Observatory
(46.0000°N, 62.7500°W)
Time: 04:46:44
(UTC-04:00)

NOSS 3-1 (A) - Visible Passes

Search period start: 19 December 2014 00:00
Search period end: 29 December 2014 00:00
Orbit: 890 x 1323 km, 63.4° (Epoch: 16 December)

Date Brightness Start Highest point End Pass type
(mag) Time Alt. Az. Time Alt. Az. Time Alt. Az.
19 Dec 5.5 18:28:15 10° NW 18:35:02 37° WSW 18:42:13 10° S visible
20 Dec 4.9 17:43:15 10° NW 17:50:32 54° WSW 17:58:19 10° SSE visible
20 Dec 7.0 19:38:32 10° W 19:40:09 11° WSW 19:41:48 10° WSW visible
21 Dec 4.3 16:58:27 10° NW 17:05:54 77° SW 17:13:59 10° SSE visible
21 Dec 6.6 18:51:04 10° WNW 18:56:00 19° WSW 19:01:06 10° SSW visible
22 Dec 6.5 06:56:29 10° SSE 07:00:22 18° ESE 07:04:26 10° ENE visible
22 Dec 6.1 18:05:25 10° WNW 18:11:42 29° WSW 18:18:18 10° SSW visible
23 Dec 5.4 17:20:15 10° NW 17:27:16 43° WSW 17:34:44 10° S visible
24 Dec 5.2 07:15:38 10° S 07:21:11 39° ESE 07:27:12 10° NE visible
24 Dec 7.1 18:29:05 10° WNW 18:32:32 14° WSW 18:36:03 10° SW visible
25 Dec 6.0 06:32:10 10° SSE 06:36:54 24° ESE 06:41:56 10° ENE visible
25 Dec 6.7 17:42:46 10° WNW 17:48:19 22° WSW 17:54:06 10° SSW visible
26 Dec 6.6 05:49:39 10° SE 05:52:44 14° ESE 05:55:55 10° ENE visible
26 Dec 6.1 16:57:21 10° NW 17:03:58 34° WSW 17:10:58 10° S visible
27 Dec 4.5 06:52:01 10° SSW 06:57:51 52° ESE 07:04:15 10° NE visible
28 Dec 5.3 06:08:11 10° S 06:13:28 32° ESE 06:19:11 10° NE visible
28 Dec 6.9 17:20:25 10° WNW 17:24:53 17° WSW 17:29:30 10° SW visible
